Regional Weather Roundup
Issued by NWS

Home | Current Version | Previous Version | Graphics & Text | Print | Product List | Glossary Off
Versions: 1 2 3 4 5 6 7 8 9 10 11 12 13 14 15 16 17 18 19 20 21 22 23 24 25 26 27 28 29 30 31 32 33 34 35 36 37 38 39 40 41 42 43 44 45 46 47 48 49 50

000
ASUS43 KMKX 161021
RWRWI

WISCONSIN REGIONAL WEATHER ROUNDUP
NATIONAL WEATHER SERVICE MILWAUKEE/SULLIVAN WI
500 AM CDT MON OCT 16 2017

NOTE: "FAIR" INDICATES FEW OR NO CLOUDS BELOW 12,000 FEET WITH NO
SIGNIFICANT WEATHER AND/OR OBSTRUCTIONS TO VISIBILITY.

WIZ001-002-006>008-014>016-023>028-161100-
NORTHWEST WISCONSIN

CITY           SKY/WX    TMP DP  RH WIND       PRES   REMARKS
SUPERIOR ARPT  PTCLDY    35  34  97 SW8       30.17S WCI  28
ASHLAND        CLEAR     38  34  85 SW9       30.17S WCI  31
HAYWARD        CLEAR     30  28  92 CALM      30.19S
SIREN          CLEAR     31  30  96 CALM      30.20S
CUMBERLAND     CLEAR     32  32 100 S3        30.20S
RICE LAKE      MOCLDY    32  32 100 CALM      30.22S FOG
CHETEK         CLEAR     32  32 100 CALM      30.22R FOG
LADYSMITH      CLEAR     32  31  97 CALM      30.22R
EAU CLAIRE     CLEAR     37  35  92 CALM      30.22R
MENOMONIE      CLEAR     35  35  99 CALM      30.23R FOG
NEW RICHMOND   PTCLDY    35  35  99 S3        30.22S
OSCEOLA        CLEAR     33  33 100 CALM      30.24S
$$

WIZ003>005-009-010-017-018-161100-
NORTH CENTRAL WISCONSIN

CITY           SKY/WX    TMP DP  RH WIND       PRES   REMARKS
MANITOWISH WTR   N/A     29  29 100 CALM      30.16S FOG
ARBOR VITAE    CLEAR     32  31  97 CALM      30.17S
WOODRUFF       CLEAR     32  31  97 CALM      30.17S
RHINELANDER    CLEAR     30  30 100 W5        30.19R WCI  25
EAGLE RIVER    CLEAR     31  31 100 CALM      30.17R
LAND O LAKES   CLEAR     29  29 100 CALM      30.18S
PHILLIPS       CLEAR     29  29 100 CALM      30.18S
TOMAHAWK       CLEAR     28  27  96 CALM      30.20R
MEDFORD        CLEAR     32  32  99 CALM      30.20R
MERRILL        PTCLDY    29  29 100 CALM      30.21S
$$

WIZ029-030-035-036-043>047-161100-
CENTRAL WISCONSIN

CITY           SKY/WX    TMP DP  RH WIND       PRES   REMARKS
WAUSAU         CLEAR     35  34  96 CALM      30.20R
MOSINEE        CLEAR     36  36 100 CALM      30.23R
MARSHFIELD     CLEAR     35  33  92 CALM      30.21R FOG
STEVENS POINT  CLEAR     31  31 100 CALM      30.23R FOG
WAUPACA        CLEAR     38  36  95 CALM      30.23S
WAUTOMA        CLEAR     36  36 100 CALM      30.24R
WISC RAPIDS    FOG       34  34 100 CALM      30.24R VSB 1/2
CAMP DOUGLAS   FOG       32  32 100 CALM      30.24R VSB 1/2
$$

WIZ011>013-019>022-031-037>040-048>050-161100-
NORTHEAST WISCONSIN

CITY           SKY/WX    TMP DP  RH WIND       PRES   REMARKS
ANTIGO         CLEAR     32  32 100 CALM      30.20S
SHAWANO        CLEAR     39  37  92 CALM      30.21S
OCONTO         PTCLDY    34  34  99 W5        30.21R WCI  30
STURGEON BAY   CLEAR     41  39  93 SW6       30.21R
GREEN BAY      CLOUDY    42  41  96 W7        30.22R
MANITOWOC      CLOUDY    43  40  89 W6        30.23R
APPLETON       CLEAR     37  37 100 W8        30.21R WCI  31
CLINTONVILLE   PTCLDY    37  36  93 CALM      30.22R FOG
OSHKOSH        CLOUDY    43  40  89 W3        30.23R
$$

WIZ032>034-041-042-053>061-161100-
SOUTHWEST WISCONSIN

CITY           SKY/WX    TMP DP  RH WIND       PRES   REMARKS
LA CROSSE      CLEAR     40  39  97 SE6       30.25R
SPARTA         FOG       30  30 100 CALM      30.25R VSB 1/4
VIROQUA        CLEAR     39  38  98 W5        30.24R
BOSCOBEL       FOG       39  38  96 SW3       30.26R VSB 1/4
PRAIRIE DU CHI CLEAR     38  35  90 CALM      30.26S
PLATTEVILLE    CLEAR     38  38 100 SW3       30.25S
$$

WIZ056-057-062-063-064-067-068-161100-
SOUTH CENTRAL WISCONSIN

CITY           SKY/WX    TMP DP  RH WIND       PRES   REMARKS
REEDSBURG      CLEAR     36  36 100 CALM      30.24R
BARABOO/DELLS  CLEAR     36  35  97 SW3       30.24R
LONE ROCK      MOCLDY    35  35 100 CALM      30.26R FOG
MINERAL POINT  CLEAR     41  41 100 S3        30.24S
MADISON        CLEAR     40  38  93 CALM      30.25R
MIDDLETON      CLEAR     41  41 100 CALM      30.25S
WATERTOWN      CLOUDY    43  43 100 CALM      30.25R
MONROE         CLEAR     39  36  87 S6        30.25S WCI  35
JANESVILLE     MOCLDY    43  43 100 CALM      30.26R
$$

WIZ051-052-058>065-066-070>072-161100-
SOUTHEAST WISCONSIN

CITY           SKY/WX    TMP DP  RH WIND       PRES   REMARKS
MILWAUKEE      CLOUDY    47  41  80 W6        30.25R
WAUKESHA       CLOUDY    41  37  87 SW3       30.26R
MILWAUKEE/TIMM MOCLDY    43  37  81 W5        30.26R
RACINE         CLOUDY    45  41  86 W7        30.27R
BURLINGTON     PTCLDY    44  43  99 CALM      30.26R
KENOSHA        CLOUDY    44  41  89 W6        30.26R
FOND DU LAC    CLOUDY    44  40  85 SW3       30.24R
SHEBOYGAN      MOCLDY    43  41  93 W5        30.23R
WEST BEND      PTCLDY    41  39  93 W3        30.24R
JUNEAU         CLOUDY    40  40  97 CALM      30.25S
$$

LSZ147-162-161100-
LAKE SUPERIOR

STATION/POSITION TIME  TEMP    WIND        PRES    WAVE
                       AIR SEA DIR/SP/G            HT/PER
                 (UTC) (F)     (DEG/KT/KT) (MB)    (FT/S)
W MID LAKE BUOY  0950   49 53              1019.8F   3/ 5
DEVILS ISLAND    1000   46     240/ 18/ 19 1020.8F
PORT WING        0840          170/  6/  7 1021.3S
SAXON HARBOR     0940   39     200/  6/ 10 1020.7F
$$

LMZ867-665-643>646-161100-
LAKE MICHIGAN

STATION/POSITION TIME  TEMP    WIND        PRES    WAVE
                       AIR SEA DIR/SP/G            HT/PER
                 (UTC) (F)     (DEG/KT/KT) (MB)    (FT/S)
S GREEN BAY BUOY 1000   46 58  270/ 12/ 14 1022.5
N MID LAKE BUOY  0950   50 60  210/  6/  8 1023.1R   1
NORTHPORT PIER   0940   41     200/  2/  4 1022.0S
KEWAUNEE LAKESHO 1000   40     290/  5/  6 1022.1
SHEBOYGAN LAKESH 1000   46     260/  8/  9 1023.9R
PORT WASHINGTON  0930   46     280/  4/  8 1024.7R
MILWAUKEE LAKESH 1000   38     290/  7/  8   N/A
S MID LAKE BUOY  0950   52 62  330/ 14/ 17 1024.1R   5/ 7
KENOSHA   LAKESH 1000   47     250/  8/ 10 1024.7
$$

TC  - TEMPERATURE IN CELSIUS
VSB - VISIBILITY IN STATUTE MILES
WCI - WIND CHILL INDEX
HX  - HEAT INDEX





USA.gov is the U.S. government's official web portal to all federal, state and local government web resources and services.